[[{"header":{"parameterUnit":"m.s-1","parameterCategory":1,"la1":30.2991,"la2":30.254,"lo1":-89.0895,"lo2":-89.0444,"dy":0.0017,"dx":0.0017,"nx":28,"ny":28,"refTime":"2025-03-25T03:00:00:Z","depth":0,"parameterNumber":2,"parameterNumberName":"U-component_of_WINDS"},"data":[0,0,0,0,0,0,0,0,0,0,0,0,0,0,0,0,0,0,0,0,0,0,0,0,0,0,0,0,0,0,0,0,0,0,0,0,0,0,0,0,0,0,0,0,0,0,0,0,0,0,0,0,0,0,0,0,0,0,1.4421,1.4422,0,1.4507,1.4508,1.4509,1.452,1.4519,1.4518,1.4518,1.4606,1.4609,1.4612,0,0,0,0,0,0,0,0,0,0,0,0,0,1.4264,1.4267,1.4421,1.4422,1.4423,1.4507,1.4508,1.4509,1.452,1.4519,1.4518,1.4517,1.4605,1.4609,1.4612,0,0,0,0,0,0,0,0,0,0,0,0,0,1.4339,1.4268,1.442,1.4438,1.4441,1.4507,1.4508,1.451,1.452,1.4519,1.4518,1.4517,1.4604,1.4608,1.4613,1.4667,0,0,1.4627,1.4629,0,0,0,0,0,0,0,0,1.4335,1.4345,1.4435,1.4437,1.444,1.4501,1.4485,1.4562,1.4521,1.449,1.4518,1.4516,1.4572,1.4579,1.4598,1.4671,1.4675,1.4628,1.4631,1.4633,1.4634,0,0,0,0,0,0,0,1.433,1.4341,1.4455,1.4436,1.4439,1.4442,1.4451,1.45,1.4537,1.4493,1.4494,1.4504,1.4574,1.4594,1.4601,1.4676,1.4628,1.4632,1.4635,1.4636,1.4795,1.4797,0,0,0,0,0,0,1.4321,1.4337,1.4452,1.4457,1.4383,1.4446,1.4456,1.4483,1.4537,1.4544,1.4505,1.4504,1.4586,1.4595,1.4604,1.4669,1.4633,1.4637,1.464,1.4794,1.4796,1.4797,0,0,0,0,0,0,1.4318,1.4332,1.4449,1.4398,1.4413,1.445,1.448,1.4485,1.4506,1.4546,1.4552,1.4519,1.4586,1.4597,1.4651,1.4672,1.4639,1.4643,1.4792,1.4794,1.4796,1.48,0,0,0,0,0,0,1.4313,1.433,1.4352,1.4398,1.4415,1.4494,1.4481,1.4488,1.4514,1.4514,1.4561,1.4567,1.4586,1.4644,1.4655,1.4678,1.4647,1.479,1.4793,1.4796,1.4799,1.4802,1.4806,0,0,0,0,0,1.4308,1.435,1.4353,1.4366,1.4443,1.4496,1.4505,1.4526,1.4516,1.4537,1.4562,1.4566,1.4668,1.4649,1.4662,1.4687,1.4789,1.4792,1.4795,1.4797,1.4802,1.4806,0,0,0,0,0,0,1.4305,1.4356,1.436,1.4418,1.4452,1.4497,1.4525,1.4531,1.4569,1.4567,1.4591,1.4601,1.4653,1.4676,1.4653,1.4741,1.4728,1.4733,1.4724,1.4729,1.4733,1.4726,1.4651,0,0,0,0,0,1.4311,1.435,1.4393,1.444,1.4457,1.4488,1.4512,1.4524,1.4561,1.4575,1.4605,1.464,1.468,1.4706,1.4745,1.4802,1.4812,1.4825,1.4829,1.4832,1.4836,1.4866,1.4873,1.4807,1.4807,1.4807,0,0,1.4324,1.4357,1.438,1.444,1.4468,1.4507,1.45,1.4542,1.4571,1.4582,1.4634,1.4657,1.4697,1.4752,1.4778,1.4773,1.4856,1.4836,1.4838,1.4841,1.487,1.4876,1.4882,1.481,1.4809,1.4809,0,0,1.4368,1.4397,1.4439,1.4467,1.4509,1.453,1.4539,1.4584,1.4599,1.4651,1.4659,1.4694,1.4763,1.4791,1.4815,1.4867,1.4872,1.488,1.4898,1.4927,1.4932,1.4937,1.4955,1.4961,1.4884,1.4884,1.4884,0,1.4379,1.4439,1.446,1.4501,1.4527,1.4538,1.4579,1.4606,1.4659,1.4676,1.4669,1.4754,1.4782,1.4843,1.4856,1.4875,1.4886,1.4874,1.493,1.4935,1.4939,1.4956,1.4963,1.4885,1.4885,1.4885,1.4885,0,1.4449,1.449,1.4519,1.4569,1.4598,1.464,1.4666,1.4693,1.4702,1.4723,1.4775,1.481,1.4855,1.4871,1.4881,1.4933,1.4928,1.4925,1.4912,1.4946,1.4962,1.4969,1.4886,1.4885,1.4885,1.4885,0,0,1.4494,1.4554,1.4564,1.4587,1.4634,1.4666,1.4707,1.4751,1.4773,1.4809,1.4844,1.4901,1.4898,1.4925,1.4938,1.4964,1.5002,1.4958,1.4959,1.4964,1.5059,1.506,1.5067,1.5005,1.5006,1.5007,1.5055,0,1.4542,1.4616,1.4636,1.4699,1.4736,1.4746,1.4782,1.4815,1.4835,1.4869,1.4891,1.4931,1.4925,1.4941,1.4967,1.4991,1.5021,1.4988,1.5036,1.5038,1.5025,1.5076,1.5077,1.512,1.5062,1.5063,1.5064,0,1.4608,1.4645,1.4711,1.4752,1.4768,1.48,1.4841,1.4875,1.4911,1.4924,1.4952,1.4963,1.5006,1.4991,1.505,1.5027,1.5048,1.5063,1.5065,1.5069,1.5052,1.508,1.5135,1.5141,1.5074,1.5073,1.5072,0,1.4632,1.4698,1.4746,1.4765,1.4814,1.4836,1.4858,1.4893,1.4918,1.4954,1.497,1.501,1.5032,1.5063,1.5084,1.5072,1.514,1.5128,1.5151,1.5151,1.5165,1.5164,1.5222,1.518,1.518,1.518,1.518,0,1.4683,1.4723,1.4757,1.4787,1.4831,1.4853,1.4896,1.4918,1.4949,1.4982,1.4994,1.5025,1.5051,1.5085,1.5102,1.5147,1.5158,1.5168,1.5172,1.5167,1.5165,1.518,1.5177,1.5182,1.5181,1.5181,1.5181,0,1.4718,1.4742,1.4795,1.4837,1.4848,1.4879,1.4915,1.4943,1.4963,1.5005,1.5016,1.5047,1.5088,1.5112,1.5164,1.5175,1.5225,1.5228,1.5212,1.5214,1.5235,1.5232,1.5305,1.5315,1.5267,1.5267,1.5268,0,1.4748,1.4779,1.4824,1.4847,1.4868,1.4905,1.493,1.4953,1.4978,1.5021,1.5044,1.5085,1.5119,1.5184,1.5211,1.525,1.5254,1.5277,1.526,1.5253,1.5253,1.525,1.5253,1.5279,1.5279,1.528,1.528,0,1.4799,1.4809,1.4845,1.4885,1.4914,1.4947,1.4979,1.4997,1.5024,1.5052,1.5094,1.512,1.5172,1.5213,1.5254,1.5276,1.5282,1.5285,1.5292,1.5287,1.5276,1.5281,1.5219,1.5283,1.5283,1.5283,1.5283,1.5282,1.4832,1.4859,1.4894,1.4933,1.496,1.4989,1.5017,1.5041,1.5076,1.512,1.5131,1.5174,1.5208,1.5264,1.5287,1.532,1.5317,1.5328,1.533,1.5332,1.5332,1.5271,1.5328,1.5328,1.5328,1.5328,1.5328,0,1.4882,1.4905,1.4941,1.4985,1.5015,1.5019,1.5054,1.5079,1.5117,1.5149,1.5182,1.5228,1.5267,1.5297,1.5337,1.5358,1.5362,1.5368,1.5366,1.5371,1.5334,1.5323,1.5364,1.5364,1.5364,1.5364,1.5364,1.5364,1.4912,1.4957,1.4972,1.503,1.5053,1.5095,1.5115,1.5142,1.5167,1.5219,1.5251,1.527,1.5301,1.5343,1.5378,1.5386,1.5399,1.5404,1.5412,1.5377,1.5373,1.537,1.5359,1.5407,1.5408,1.5446,1.5447,1.5447]},{"header":{"parameterUnit":"m.s-1","parameterCategory":1,"la1":30.2991,"la2":30.254,"lo1":-89.0895,"lo2":-89.0444,"dy":0.0017,"dx":0.0017,"nx":28,"ny":28,"refTime":"2025-03-25T03:00:00:Z","depth":0,"parameterNumber":3,"parameterNumberName":"V-component_of_WINDS"},"data":[0,0,0,0,0,0,0,0,0,0,0,0,0,0,0,0,0,0,0,0,0,0,0,0,0,0,0,0,0,0,0,0,0,0,0,0,0,0,0,0,0,0,0,0,0,0,0,0,0,0,0,0,0,0,0,0,0,0,1.4517,1.4516,0,1.4475,1.4474,1.4474,1.4437,1.4437,1.4437,1.4436,1.4391,1.439,1.4389,0,0,0,0,0,0,0,0,0,0,0,0,0,1.4562,1.4561,1.4517,1.4516,1.4516,1.4475,1.4474,1.4474,1.4437,1.4437,1.4436,1.4436,1.4391,1.439,1.4389,0,0,0,0,0,0,0,0,0,0,0,0,0,1.4533,1.4561,1.4517,1.4493,1.449,1.4475,1.4474,1.4474,1.4438,1.4437,1.4436,1.4436,1.4392,1.439,1.4389,1.4394,0,0,1.4385,1.4385,0,0,0,0,0,0,0,0,1.4535,1.4532,1.4497,1.4494,1.4491,1.4461,1.4474,1.4447,1.4438,1.4457,1.4436,1.4435,1.4415,1.4411,1.4405,1.4392,1.439,1.4385,1.4385,1.4384,1.4384,0,0,0,0,0,0,0,1.4537,1.4533,1.45,1.4496,1.4493,1.4483,1.4478,1.4469,1.444,1.4456,1.4453,1.4449,1.4413,1.4406,1.4404,1.4389,1.4385,1.4384,1.4384,1.4383,1.4377,1.4377,0,0,0,0,0,0,1.4543,1.4535,1.4501,1.4499,1.4512,1.4483,1.4477,1.4471,1.444,1.4435,1.4449,1.4447,1.4409,1.4405,1.4402,1.4405,1.4384,1.4383,1.4382,1.4376,1.4377,1.4377,0,0,0,0,0,0,1.4544,1.4541,1.4503,1.4516,1.4511,1.4483,1.4476,1.4471,1.4464,1.4435,1.4429,1.4448,1.4408,1.4404,1.4396,1.4403,1.4382,1.4381,1.4375,1.4376,1.4377,1.4411,0,0,0,0,0,0,1.4546,1.4541,1.4544,1.4517,1.451,1.4499,1.4476,1.447,1.4462,1.4459,1.4432,1.4427,1.4407,1.4398,1.4395,1.4401,1.438,1.4375,1.4376,1.4377,1.4409,1.4413,1.4416,0,0,0,0,0,1.4548,1.4554,1.4544,1.454,1.4513,1.45,1.4496,1.4473,1.4463,1.4464,1.4446,1.4428,1.4402,1.4398,1.4394,1.4399,1.4374,1.4376,1.4377,1.4408,1.4412,1.4416,0,0,0,0,0,0,1.4582,1.4551,1.4538,1.4537,1.4521,1.4494,1.4495,1.4479,1.4466,1.4463,1.4435,1.4429,1.4425,1.4411,1.4406,1.4401,1.4386,1.4386,1.4411,1.4415,1.4418,1.4421,1.4379,0,0,0,0,0,1.459,1.4583,1.4555,1.4556,1.4549,1.4524,1.4517,1.4501,1.4483,1.4476,1.4457,1.444,1.4428,1.442,1.4408,1.4407,1.44,1.4408,1.4412,1.4415,1.4416,1.4413,1.4416,1.4382,1.4382,1.4382,0,0,1.4605,1.4587,1.4584,1.4563,1.4549,1.4541,1.4518,1.4511,1.4505,1.4475,1.4467,1.4452,1.4431,1.4426,1.4424,1.4415,1.4423,1.4416,1.4419,1.4418,1.4414,1.4418,1.4421,1.4382,1.4382,1.4382,0,0,1.463,1.4616,1.4615,1.4601,1.458,1.4563,1.4563,1.4537,1.4526,1.4518,1.4495,1.4486,1.4467,1.4452,1.4442,1.446,1.4443,1.4456,1.4474,1.4472,1.4475,1.4477,1.4483,1.4485,1.4457,1.4457,1.4457,0,1.4651,1.464,1.4616,1.4611,1.4601,1.4574,1.4573,1.456,1.4536,1.453,1.4521,1.4495,1.4478,1.447,1.4474,1.4467,1.4465,1.4459,1.4476,1.4478,1.448,1.4485,1.4487,1.4459,1.4459,1.4459,1.4458,0,1.4667,1.4659,1.4661,1.4639,1.463,1.4626,1.4601,1.4594,1.4579,1.4562,1.4553,1.4533,1.4515,1.4512,1.4496,1.45,1.4496,1.4482,1.4466,1.4486,1.449,1.4491,1.4462,1.4461,1.446,1.446,0,0,1.4713,1.4677,1.4678,1.4667,1.4642,1.4635,1.4629,1.4613,1.4607,1.4591,1.4585,1.4568,1.4555,1.4544,1.4526,1.4525,1.4539,1.4511,1.451,1.4516,1.4541,1.4551,1.4554,1.4527,1.4527,1.4528,1.4542,0,1.4732,1.4722,1.47,1.4696,1.4688,1.4662,1.4657,1.464,1.4624,1.4614,1.4595,1.4584,1.4568,1.4561,1.4557,1.4538,1.4543,1.4536,1.452,1.452,1.4526,1.4556,1.4567,1.4582,1.4544,1.4544,1.4544,0,1.4754,1.474,1.4736,1.471,1.4706,1.4702,1.4684,1.4675,1.4655,1.4643,1.4631,1.4611,1.4603,1.4588,1.4575,1.4571,1.4562,1.4552,1.4552,1.4549,1.4533,1.4554,1.4587,1.4589,1.4547,1.4547,1.4546,0,1.4787,1.4767,1.4762,1.4753,1.4723,1.4721,1.4708,1.4688,1.4679,1.4663,1.4656,1.464,1.463,1.4617,1.4593,1.4585,1.4582,1.4566,1.4571,1.4572,1.4572,1.4572,1.4604,1.4568,1.4568,1.4568,1.4567,0,1.4811,1.481,1.4776,1.4773,1.4769,1.4744,1.4741,1.4725,1.4707,1.4699,1.4675,1.4668,1.4637,1.4626,1.4607,1.4598,1.4594,1.4584,1.4579,1.4586,1.4587,1.458,1.4578,1.4568,1.4568,1.4568,1.4568,0,1.4848,1.4826,1.4818,1.479,1.4783,1.4781,1.4757,1.4752,1.4734,1.4725,1.4721,1.4693,1.4678,1.4653,1.4631,1.4618,1.4613,1.4605,1.4621,1.4617,1.4624,1.4624,1.4652,1.4654,1.4617,1.4617,1.4618,0,1.4865,1.4863,1.4835,1.4828,1.4817,1.4806,1.4797,1.4771,1.4762,1.4739,1.4736,1.472,1.4706,1.4684,1.466,1.4643,1.4634,1.4645,1.4631,1.4638,1.4633,1.4634,1.4633,1.4648,1.4648,1.4649,1.4649,0,1.4897,1.4886,1.4874,1.4858,1.4848,1.4834,1.4818,1.4814,1.4784,1.4775,1.4761,1.475,1.4727,1.4711,1.469,1.4676,1.4657,1.4654,1.4654,1.4661,1.467,1.4665,1.4629,1.4653,1.4653,1.4653,1.4652,1.4652,1.4924,1.492,1.49,1.4887,1.4873,1.4859,1.4853,1.4834,1.4822,1.4802,1.4787,1.4774,1.4752,1.4722,1.4709,1.4697,1.4688,1.4689,1.4689,1.4689,1.4692,1.4672,1.4693,1.4693,1.4692,1.4692,1.4692,0,1.4954,1.494,1.4928,1.4908,1.4897,1.4882,1.4863,1.4855,1.4844,1.4826,1.4812,1.4795,1.4778,1.4754,1.4735,1.473,1.4721,1.4726,1.4726,1.4723,1.4701,1.4702,1.4734,1.4734,1.4734,1.4734,1.4734,1.4734,1.4969,1.4962,1.4948,1.4934,1.4919,1.4906,1.4897,1.4883,1.4868,1.485,1.4837,1.4821,1.48,1.478,1.4764,1.4757,1.4751,1.4758,1.4749,1.4728,1.4725,1.4721,1.4722,1.4758,1.4758,1.4772,1.4772,1.4772]}]]